Flag for Colombia Weather past 2 weeks in Cartagena, Colombia

Now
81 °F

Scattered clouds.


Feels Like: 87 °F
Forecast: 81 / 92 °F
Wind: 6 mph from Southeast

Location: Cartagena / Rafael Nunez

Current Time: Jul 22, 2014 at 6:52:48 AM

Latest Report: Jul 22, 2014 at 6:00 AM


Visibility: 6 mi

Pressure: 29.79 "Hg

Humidity: 89%

Dew point: 77 °F

Location of CartagenaLocation

Historic Weather in Cartagena — Graph

°F

Cartagena temperature yesterday

Maximum temperature yesterday: 90 °F (at 12:00 PM)
Minimum temperature yesterday: 82 °F (at 12:00 AM)
Average temperature yesterday: 85 °F

Past Weeks' High & Low Weather Summary

 TemperatureHumidityPressure
High97 °F (Jul 13, 11:00 AM)94% (Jul 7, 7:00 PM)29.92 "Hg (Jul 7, 7:00 PM)
Low79 °F (Jul 7, 7:00 PM)44% (Jul 13, 11:00 AM)28.72 "Hg (Jul 20, 11:00 PM)
Average85 °F78%29.81 "Hg
* Reported Jul 7 5:00 AM — Jul 22 5:00 AM, Cartagena, Weather by CustomWeather, © 2014

Note: Actual official high and low records may vary slightly from our data, if they occured in-between our weather recording intervals... More about our weather records

Advertising

Cartagena weather history for previous 24 hours

 ConditionsComfort  
Time TempWeatherWind HumidityBarometerVisibility
5:00 AM
Jul 22
82 °FPassing clouds.No wind89%29.77 "HgN/A
4:00 AM82 °FPassing clouds.3 mph89%29.76 "HgN/A
3:00 AM82 °FPassing clouds.3 mph89%29.77 "HgN/A
2:00 AM82 °FPassing clouds.No wind89%29.77 "HgN/A
1:00 AM82 °FPassing clouds.No wind89%29.79 "HgN/A
12:00 AM82 °FPassing clouds.2 mph89%29.80 "HgN/A
11:00 PM
Jul 21
82 °FPassing clouds.No wind89%29.82 "HgN/A
10:00 PM82 °FPassing clouds.2 mph89%29.82 "HgN/A
9:00 PM82 °FPassing clouds.10 mph89%29.80 "HgN/A
8:00 PM84 °FPassing clouds.6 mph84%29.79 "HgN/A
7:00 PM84 °FPassing clouds.9 mph84%29.79 "HgN/A
6:00 PM88 °FScattered clouds.2 mph66%29.78 "HgN/A
5:00 PM90 °FPartly sunny.12 mph67%29.78 "HgN/A
4:00 PM88 °FScattered clouds.16 mph70%29.78 "HgN/A
3:00 PM88 °FScattered clouds.15 mph70%29.77 "HgN/A
2:00 PM90 °FPartly sunny.9 mph71%29.79 "HgN/A
1:00 PM90 °FScattered clouds.9 mph71%29.82 "HgN/A
12:00 PM90 °FScattered clouds.10 mph71%29.85 "HgN/A
11:00 AM88 °FScattered clouds.9 mph70%29.85 "HgN/A
10:00 AM88 °FScattered clouds.3 mph70%29.86 "HgN/A
9:00 AM86 °FBroken clouds.6 mph70%29.86 "HgN/A
8:00 AM82 °FBroken clouds.7 mph79%29.85 "HgN/A
7:00 AM82 °FBroken clouds.3 mph84%29.82 "HgN/A
6:00 AM82 °FPartly sunny.3 mph84%29.82 "HgN/A
Weather by CustomWeather, © 2014

See weather overviewHow to use our weather pages